TimeEDT,TemperatureF,Dew PointF,Humidity,Sea Level PressureIn,VisibilityMPH,Wind Direction,Wind SpeedMPH,Gust SpeedMPH,PrecipitationIn,Events,Conditions,WindDirDegrees,DateUTC
12:53 AM,48.9,41.0,74,29.98,10.0,South,9.2,-,N/A,,Clear,180,2013-10-21 04:53:00
1:53 AM,48.9,39.9,71,29.97,10.0,South,10.4,-,N/A,,Clear,180,2013-10-21 05:53:00
2:53 AM,48.0,39.9,74,29.98,10.0,South,9.2,-,N/A,,Clear,180,2013-10-21 06:53:00
3:53 AM,46.9,39.9,77,29.98,10.0,South,9.2,-,N/A,,Clear,180,2013-10-21 07:53:00
4:53 AM,46.9,39.9,77,29.96,10.0,South,9.2,-,N/A,,Clear,180,2013-10-21 08:53:00
5:53 AM,46.9,39.0,74,29.97,10.0,South,10.4,-,N/A,,Clear,180,2013-10-21 09:53:00
6:53 AM,46.0,39.0,76,29.97,10.0,South,11.5,-,N/A,,Clear,180,2013-10-21 10:53:00
7:53 AM,46.0,39.0,76,29.97,10.0,South,11.5,-,N/A,,Clear,180,2013-10-21 11:53:00
8:53 AM,46.9,39.9,77,29.98,10.0,South,10.4,-,N/A,,Clear,190,2013-10-21 12:53:00
9:53 AM,51.1,41.0,68,29.98,10.0,South,13.8,-,N/A,,Clear,190,2013-10-21 13:53:00
10:53 AM,57.0,43.0,59,29.96,10.0,SSW,10.4,-,N/A,,Clear,210,2013-10-21 14:53:00
11:53 AM,62.1,44.1,52,29.95,10.0,WSW,12.7,19.6,N/A,,Clear,240,2013-10-21 15:53:00
12:53 PM,63.0,44.1,50,29.94,10.0,SW,12.7,-,N/A,,Clear,230,2013-10-21 16:53:00
1:53 PM,64.0,45.0,50,29.92,10.0,SW,12.7,-,N/A,,Mostly Cloudy,230,2013-10-21 17:53:00
2:53 PM,62.1,45.0,53,29.91,10.0,SW,16.1,-,N/A,,Overcast,220,2013-10-21 18:53:00
3:53 PM,62.1,45.0,53,29.90,10.0,WSW,11.5,18.4,N/A,,Overcast,250,2013-10-21 19:53:00
4:53 PM,61.0,45.0,56,29.90,10.0,West,11.5,18.4,N/A,,Overcast,260,2013-10-21 20:53:00
5:53 PM,59.0,44.1,58,29.91,10.0,West,10.4,20.7,N/A,,Overcast,270,2013-10-21 21:53:00
6:53 PM,55.9,46.0,69,29.94,10.0,WNW,11.5,-,0.00,Rain,Light Rain,290,2013-10-21 22:53:00
7:53 PM,53.1,46.0,77,29.95,10.0,WNW,6.9,-,0.00,,Overcast,290,2013-10-21 23:53:00
8:49 PM,51.8,46.4,82,29.95,10.0,WNW,5.8,-,N/A,,Mostly Cloudy,300,2013-10-22 00:49:00
8:53 PM,52.0,46.0,80,29.96,10.0,WNW,6.9,-,N/A,,Overcast,300,2013-10-22 00:53:00
9:21 PM,51.8,44.6,76,29.95,10.0,WNW,10.4,-,N/A,,Overcast,290,2013-10-22 01:21:00
9:53 PM,52.0,42.1,69,29.96,10.0,NW,10.4,-,0.00,,Overcast,310,2013-10-22 01:53:00
10:05 PM,51.8,41.0,67,29.96,10.0,NW,13.8,-,N/A,,Overcast,320,2013-10-22 02:05:00
10:36 PM,50.0,37.4,62,29.98,10.0,NW,13.8,19.6,N/A,,Overcast,310,2013-10-22 02:36:00
10:53 PM,48.9,33.1,54,29.99,10.0,WNW,16.1,-,N/A,,Overcast,300,2013-10-22 02:53:00
11:53 PM,45.0,30.9,58,30.00,10.0,NW,12.7,21.9,N/A,,Scattered Clouds,320,2013-10-22 03:53:00